GFSNGP_850_rhum_255.txt.gz
RH
54 77 66 70 79 69 72 82 95 81 94 95 85 68 65 68 70 72 77 69 84 88 92 94 90 86 85 79 72 70 79 79 92 95 95 94 97 96 96 95 98 89 97 100
66 66 65 92 85 89 70 65 81 75 78 79 67 67 69 73 75 76 70 84 91 96 99 99 95 86 84 79 78 71 75 79 82 91 94 94 96 95 98 76 95 95 99 98
75 73 82 97 91 79 77 65 84 92 91 65 73 75 77 78 78 74 86 95 98 100 100 100 92 86 85 82 79 78 71 76 81 79 80 93 95 91 65 97 52 78 81 92
85 52 77 76 56 53 56 75 76 76 71 76 81 79 81 62 65 89 100 100 98 100 100 96 88 82 83 83 84 84 79 77 76 76 83 88 89 92 92 38 88 64 38 42
80 86 65 93 69 76 80 72 80 75 77 81 82 85 54 58 88 100 100 100 100 100 100 94 86 92 88 85 91 88 91 84 80 77 80 84 90 88 85 73 47 41 41 35
76 96 92 91 74 71 76 97 79 77 85 93 92 90 63 83 92 96 98 100 100 100 92 90 90 96 95 88 92 93 92 92 86 82 79 79 85 83 81 75 67 46 38 35
92 95 79 88 80 58 70 74 83 90 97 98 93 95 98 100 93 94 98 96 99 91 95 92 92 98 92 91 90 98 93 90 89 84 81 78 83 83 77 74 62 44 42 37
90 96 94 87 71 75 79 92 96 100 100 98 100 100 100 100 100 99 95 87 85 95 96 87 92 96 92 90 95 96 93 88 87 87 82 79 85 80 79 76 66 52 45 41
83 68 72 76 91 95 96 96 95 98 97 100 100 100 100 100 100 100 100 92 94 100 91 86 96 98 96 94 93 92 94 90 87 84 80 79 87 84 76 76 72 60 53 56
82 73 78 71 84 80 92 98 96 98 98 99 100 97 98 94 95 100 98 100 100 95 93 92 95 96 97 96 94 91 94 93 91 91 90 90 92 88 81 76 68 64 78 84
90 71 68 69 67 92 98 95 99 94 99 100 99 95 100 98 96 95 93 98 94 98 97 96 96 95 95 94 95 96 94 94 95 99 96 88 87 90 83 85 95 94 92 96
95 86 98 89 90 98 98 98 96 99 96 91 98 97 97 94 97 95 97 95 94 94 96 96 95 96 95 96 96 96 95 93 95 100 100 93 93 87 82 91 93 95 89 88
95 98 97 87 95 93 96 93 90 97 93 97 90 97 96 97 96 97 95 96 95 96 96 96 97 98 98 96 96 96 97 95 95 97 98 97 96 100 82 76 84 90 93 90
99 97 81 86 99 92 94 94 90 88 89 91 96 95 98 96 91 95 96 97 96 96 95 96 97 98 100 98 97 96 96 97 98 99 100 98 98 96 90 83 92 96 98 93
98 96 98 97 92 93 97 96 88 86 88 89 94 99 97 94 94 96 96 96 91 92 90 91 97 96 98 96 98 98 98 97 98 95 97 99 99 91 91 99 95 91 87 82
91 95 96 92 93 94 94 92 91 87 91 95 96 95 96 96 96 96 96 96 94 95 95 96 96 97 95 97 96 96 96 98 100 97 97 94 96 96 98 100 97 97 85 90
96 89 94 90 96 96 96 97 96 98 95 95 96 97 97 93 90 93 94 93 90 95 96 97 97 97 95 97 96 96 97 97 100 100 89 98 99 97 97 97 96 94 98 97
99 99 100 100 100 97 93 93 94 92 89 93 95 96 96 98 99 96 96 88 79 77 94 93 96 96 96 96 96 96 96 97 96 97 97 97 98 99 99 100 98 98 98 97
98 96 98 98 100 98 99 96 92 91 88 89 93 95 97 96 94 93 96 92 88 86 92 92 98 97 95 96 96 94 96 96 96 96 97 97 97 97 97 98 99 98 97 97
97 98 98 98 99 100 99 98 94 89 90 89 91 94 90 91 90 84 86 95 98 98 98 92 97 98 94 96 96 94 95 96 96 96 97 95 96 96 97 98 98 98 97 96
95 94 96 96 94 97 99 99 95 87 83 91 97 96 93 93 88 85 85 89 90 90 98 82 98 98 96 96 91 92 93 95 95 96 96 96 96 96 96 96 97 97 97 96
94 92 93 94 94 93 97 99 100 96 85 78 87 88 87 85 83 70 83 91 94 96 98 86 97 98 97 94 92 92 93 95 96 94 96 95 95 95 95 95 95 95 96 96
94 94 95 95 94 93 96 98 98 96 87 86 92 89 90 96 95 84 67 73 83 100 98 91 99 98 97 91 92 93 94 93 97 96 95 96 96 96 95 95 96 96 95 95
90 94 94 95 96 96 90 89 93 96 88 87 96 96 91 81 82 82 78 71 70 82 97 95 96 97 96 96 96 95 93 92 97 96 97 96 96 96 96 96 95 96 95 94
85 91 94 93 92 93 93 88 89 90 87 76 80 85 89 90 87 82 79 71 69 67 75 88 93 95 94 94 97 97 97 96 98 97 95 96 98 98 99 98 97 97 95 94
79 85 93 94 93 95 94 90 92 93 90 82 78 80 86 86 85 82 77 75 71 69 66 70 78 94 96 97 97 96 96 95 95 97 98 98 98 97 98 96 97 96 97 96
80 82 88 95 96 94 93 95 94 92 95 91 88 87 85 84 86 83 80 75 72 72 71 68 67 74 86 96 96 96 96 96 96 96 96 96 96 97 97 98 97 94 95 96

GFSNGP_850_rhum_258.txt.gz
RH
56 62 72 76 77 77 80 88 95 79 83 74 88 69 68 71 74 74 75 71 86 95 98 97 90 85 83 84 74 76 75 71 77 91 95 95 96 96 96 96 96 99 99 98
63 71 67 89 87 83 89 68 75 82 87 76 66 66 72 76 76 77 74 88 96 99 100 100 91 87 89 90 82 79 81 79 78 87 92 93 96 96 96 96 98 96 98 99
74 65 77 92 94 78 78 61 78 97 91 66 70 75 78 76 80 79 92 99 100 100 100 100 92 89 91 90 88 84 86 84 84 90 89 90 95 96 96 95 96 99 95 98
86 57 77 66 58 59 64 56 81 77 72 72 78 80 81 64 65 94 99 98 93 96 100 95 91 88 88 88 90 89 89 92 89 92 90 84 89 93 96 91 90 97 89 90
83 88 56 94 74 79 86 73 81 81 76 83 83 87 58 57 86 100 100 98 98 99 100 96 89 94 93 88 92 89 94 93 93 93 89 86 84 91 90 95 92 73 96 76
80 97 97 82 79 68 82 96 81 80 87 92 92 90 63 84 93 100 100 100 100 100 94 90 90 99 100 90 90 95 96 99 94 92 93 88 84 85 86 91 93 89 62 71
93 97 78 89 78 67 75 77 85 92 98 97 93 93 97 100 96 97 99 100 99 92 96 95 93 100 97 95 94 100 100 98 91 92 93 86 84 90 88 85 91 85 72 57
90 99 92 82 69 77 84 88 94 100 100 100 100 100 100 100 100 99 99 90 89 95 95 87 95 98 96 95 100 100 97 94 90 90 90 85 89 90 91 86 78 81 79 87
80 68 73 74 81 98 94 99 99 100 95 100 100 100 100 100 98 100 100 95 95 100 93 86 96 98 96 96 100 100 97 94 95 93 90 91 96 89 89 80 76 68 77 92
84 68 71 66 96 83 91 98 94 94 100 100 100 98 96 96 98 98 93 94 98 94 92 93 96 96 98 98 100 100 100 94 93 96 100 100 96 95 92 85 85 84 84 91
92 70 69 76 70 84 93 92 92 92 98 99 99 94 100 97 96 96 92 98 96 97 96 96 96 95 96 98 98 100 100 98 95 99 96 92 95 93 94 84 90 97 98 100
94 83 98 88 86 96 100 96 95 100 99 94 99 97 98 95 98 96 96 95 94 94 95 95 95 96 96 97 98 99 99 100 98 100 99 96 96 86 96 88 82 93 95 90
90 95 96 87 88 93 98 94 95 98 91 98 95 98 97 98 96 98 96 96 95 96 96 95 95 95 97 98 97 98 97 96 98 98 97 98 97 96 88 82 80 81 92 96
96 100 88 88 100 95 96 90 88 85 87 90 96 96 100 100 92 96 97 97 96 96 95 96 95 97 96 97 99 99 96 97 100 100 96 96 99 97 86 90 96 97 98 95
96 97 98 99 96 93 94 92 86 86 86 78 91 100 100 96 95 96 96 96 92 92 90 89 96 95 96 95 97 97 98 98 100 96 97 98 97 97 98 99 97 90 84 82
89 88 91 95 92 94 96 92 90 87 88 82 93 99 100 100 97 96 97 96 96 95 95 96 96 97 96 95 96 94 95 96 96 96 98 99 96 97 99 99 95 92 91 92
94 86 89 89 94 95 98 99 100 94 92 91 94 100 100 96 91 92 94 91 95 94 96 97 95 98 95 95 96 95 96 97 97 97 97 99 100 100 98 98 96 97 97 99
96 97 100 100 100 99 95 97 97 92 90 90 95 99 99 98 95 96 98 88 80 75 91 95 96 97 96 95 96 95 96 96 95 96 97 95 97 97 96 98 98 97 97 97
95 94 95 98 100 100 99 96 95 95 89 84 91 96 99 100 91 86 96 92 87 89 90 97 95 98 95 96 96 95 95 96 96 96 96 96 95 95 95 96 96 97 97 97
92 95 95 96 99 100 98 96 95 96 95 84 86 92 92 94 92 76 78 95 98 99 100 95 88 98 95 96 96 93 94 95 95 96 96 95 96 96 96 96 96 96 97 96
90 92 94 94 94 98 100 99 95 94 93 91 92 96 97 93 95 82 68 72 88 87 99 90 88 98 96 96 93 92 92 94 95 95 96 96 96 96 96 96 96 96 96 96
86 90 92 93 93 94 100 98 99 99 96 82 81 89 88 87 82 78 81 77 75 89 99 92 93 98 97 96 93 94 94 93 96 95 95 96 96 95 95 96 96 97 96 96
82 88 92 95 93 92 96 99 100 100 99 87 82 84 86 92 93 84 71 73 71 83 89 92 97 97 97 93 96 96 94 93 97 97 96 97 97 97 97 96 96 95 94 95
77 85 92 96 96 95 93 92 95 97 100 93 91 92 88 77 78 82 83 84 74 71 74 84 96 96 96 92 96 96 96 93 96 97 96 95 96 96 98 96 95 96 96 96
77 78 86 95 95 95 95 93 92 91 92 91 84 84 89 92 90 82 84 77 76 72 68 69 78 92 92 94 97 96 96 96 96 97 97 97 97 97 96 95 93 94 94 94
88 79 79 90 95 95 96 94 93 96 93 92 91 86 89 88 87 86 84 82 81 79 74 69 66 71 81 95 97 97 97 95 94 95 96 96 96 96 97 97 97 94 93 94
96 89 82 80 96 98 97 96 96 95 96 94 94 98 93 91 92 92 90 88 83 81 81 80 74 69 70 75 85 96 97 97 96 97 96 96 95 96 96 96 97 96 97 96

GFSNGP_850_rhum_264.txt.gz
RH
35 38 40 49 54 60 72 66 76 51 56 43 52 48 46 51 56 55 55 62 69 73 74 77 81 85 89 91 96 97 100 100 100 100 100 99 87 84 90 93 92 95 94 94
42 34 49 55 52 64 62 54 57 47 51 49 51 49 52 56 58 57 65 74 77 78 80 84 87 90 93 96 98 100 100 100 100 100 100 100 100 99 91 95 95 95 94 94
52 38 37 53 62 64 62 50 48 63 56 53 51 55 61 62 58 64 78 83 83 88 91 93 94 98 98 99 100 100 100 100 100 100 100 100 100 100 93 88 93 95 95 95
56 40 52 64 50 52 56 50 42 53 55 57 60 64 65 52 61 79 86 88 92 96 97 99 100 100 99 100 100 100 100 100 100 100 100 100 100 100 100 94 95 96 95 95
56 48 34 73 60 58 65 56 63 65 62 63 66 65 40 53 78 86 90 94 100 100 100 100 100 100 100 100 100 100 100 100 100 100 100 100 100 100 100 95 96 95 97 96
54 62 55 54 54 61 66 67 65 75 70 73 75 70 48 75 83 86 92 97 98 100 100 100 100 100 100 100 100 100 100 100 100 100 100 100 100 100 100 97 96 95 95 95
50 60 42 48 60 68 73 71 76 75 81 84 81 80 85 85 85 90 97 98 100 99 100 100 99 99 100 100 100 100 100 100 100 100 100 100 100 100 100 96 95 96 96 96
57 66 62 65 54 62 83 83 82 85 86 90 92 90 87 88 90 96 99 100 100 100 100 96 96 97 100 100 99 96 96 99 99 100 100 100 100 100 100 100 91 93 95 95
60 45 58 65 66 77 89 91 88 93 96 100 100 95 94 94 98 100 100 100 100 100 100 90 96 97 96 96 96 96 100 99 100 100 100 100 100 100 100 100 95 91 96 96
71 52 53 62 81 86 88 92 96 97 100 100 100 100 100 100 100 100 100 100 100 97 97 95 95 96 97 97 98 97 97 100 100 100 100 100 100 100 100 100 99 94 94 96
62 51 57 71 80 86 96 100 98 100 100 100 100 100 100 100 100 100 100 100 100 100 99 97 96 95 96 97 98 99 100 97 97 98 100 100 100 100 99 92 100 99 98 94
59 65 85 82 87 99 100 100 100 100 94 100 100 100 100 100 100 100 97 96 95 94 96 93 95 94 96 97 97 100 97 96 98 96 96 100 100 100 97 86 82 82 90 99
78 83 99 100 97 96 100 100 100 100 97 94 86 92 100 100 96 100 95 96 94 96 97 95 95 95 96 97 96 96 96 96 96 96 97 97 96 97 96 97 99 98 98 100
82 92 91 88 97 100 100 96 96 96 100 100 96 90 96 97 92 93 95 96 96 97 95 96 94 97 97 96 96 96 95 96 96 97 97 97 98 97 97 97 100 88 87 86
83 93 97 99 100 100 98 97 95 96 94 85 83 92 97 93 92 88 95 95 92 95 88 89 96 96 98 94 96 96 95 96 96 96 96 96 96 96 97 97 97 97 97 96
87 91 92 97 98 98 98 97 97 97 96 92 88 88 94 94 95 88 88 97 95 95 94 97 94 98 98 93 97 94 94 98 98 96 95 96 96 96 96 96 96 96 97 97
84 86 91 90 94 95 98 100 100 100 100 98 89 89 95 94 93 88 74 90 96 94 95 100 91 98 95 92 99 95 95 94 98 95 95 96 96 97 96 97 97 96 96 97
80 89 96 97 96 94 93 98 100 100 100 98 92 88 96 98 97 95 81 74 81 82 86 88 95 98 97 94 98 94 95 95 93 100 96 96 96 96 97 98 98 97 96 96
77 85 94 96 98 96 96 96 98 99 98 96 90 82 93 97 95 96 82 76 75 86 87 95 92 87 99 98 96 92 91 92 94 92 97 94 92 94 94 94 94 95 97 96
74 82 88 93 97 97 94 96 95 96 99 96 90 81 85 89 88 90 84 78 80 88 97 100 91 86 99 99 97 95 93 91 95 96 95 94 100 93 93 92 93 93 93 95
71 75 82 88 92 96 96 96 94 93 95 98 94 84 85 90 87 87 80 70 72 64 81 93 91 99 98 97 95 96 95 93 95 98 96 98 95 98 96 96 94 94 94 93
74 73 76 82 89 94 96 96 95 94 96 95 95 89 83 83 79 79 86 80 77 76 83 75 81 100 99 97 93 94 96 96 95 96 94 96 97 96 96 100 95 95 95 95
84 80 76 76 82 91 95 96 97 96 96 94 94 90 86 91 94 87 76 82 81 85 82 72 74 83 94 96 93 95 93 93 94 97 97 97 97 97 97 98 98 97 93 94
94 93 89 81 79 86 92 93 94 96 96 97 97 97 91 80 85 93 92 92 87 82 83 82 76 72 73 82 90 93 95 95 92 96 98 97 97 97 97 97 97 98 99 99
96 96 96 93 84 83 91 92 92 92 93 96 96 97 96 96 94 91 95 94 93 91 84 82 84 81 71 69 73 86 94 97 97 96 98 97 97 96 97 98 97 98 98 99
97 98 98 98 94 87 87 94 92 95 93 93 95 95 97 97 96 96 96 98 98 96 93 85 80 83 84 80 72 74 79 92 95 96 100 97 97 97 97 98 98 99 100 100
96 98 98 98 98 95 91 95 96 96 96 95 91 98 97 98 98 99 98 95 92 93 95 94 90 81 82 90 86 77 74 79 91 96 97 98 98 96 97 97 97 98 96 95

GFSNGP_850_rhum_270.txt.gz
RH
39 44 40 43 44 46 53 63 74 60 57 46 45 44 43 46 48 48 44 56 63 69 75 79 83 85 88 94 95 97 99 100 96 93 92 89 83 84 88 94 92 94 96 98
46 36 35 44 38 47 48 38 47 47 51 34 40 44 47 52 53 50 60 65 70 75 81 86 87 89 98 98 100 100 98 98 96 93 93 93 89 90 92 92 93 93 93 96
62 34 39 65 69 48 48 39 45 63 59 45 50 49 54 57 55 63 67 70 73 80 84 86 88 95 98 100 96 96 98 98 97 96 96 96 94 94 93 92 93 94 93 92
70 52 76 67 42 42 45 45 41 42 48 52 54 58 61 55 66 67 72 76 81 87 88 87 91 94 98 96 96 96 97 97 97 96 96 94 96 95 93 94 96 95 95 95
77 63 41 68 47 48 54 52 53 58 57 57 65 67 58 54 69 74 76 81 87 86 94 89 93 100 100 95 96 98 98 98 96 96 96 97 97 96 95 98 98 95 97 96
71 88 74 69 51 48 48 87 54 58 63 70 77 91 62 73 72 77 78 85 90 94 86 95 94 100 97 98 96 96 97 96 96 97 97 97 97 96 95 96 96 96 96 95
73 80 65 50 48 52 75 76 67 68 73 77 92 84 82 78 80 80 84 93 92 88 99 91 98 98 95 97 96 96 96 96 96 96 97 97 96 96 95 93 97 97 99 94
58 62 71 47 52 70 71 69 75 75 82 86 87 89 86 87 88 88 94 88 89 100 88 88 96 97 95 96 97 96 96 96 96 96 96 97 96 95 96 98 97 97 96 90
84 73 45 47 53 52 59 74 76 82 87 92 92 96 89 96 95 89 91 91 99 98 92 87 94 97 96 95 95 95 96 95 96 94 95 97 96 95 96 95 97 94 95 93
78 44 42 46 52 65 68 72 82 87 90 93 98 94 100 97 92 89 88 97 100 96 93 90 93 96 97 96 97 96 95 95 96 97 97 92 97 97 94 96 96 90 95 95
73 54 47 52 60 67 76 84 90 92 91 93 100 98 98 92 85 93 92 100 99 98 95 92 94 95 94 96 96 95 95 95 97 96 96 95 96 96 97 96 97 97 97 97
88 62 68 65 67 80 85 89 95 98 89 93 95 96 95 89 87 95 99 98 92 94 95 93 95 94 94 96 96 96 95 94 96 95 95 96 97 90 95 96 98 98 98 96
61 68 65 63 77 82 88 93 95 100 96 96 99 99 97 92 87 100 97 93 86 95 97 95 96 91 98 94 95 96 96 95 96 95 96 96 96 96 94 94 96 97 99 97
66 68 63 75 78 84 93 97 96 93 96 100 100 98 100 92 86 92 94 95 90 93 96 96 91 91 95 96 95 96 95 94 96 96 96 95 96 96 96 96 95 93 92 97
65 70 68 76 88 92 96 92 90 90 93 93 96 100 97 84 84 92 96 97 87 86 93 89 87 93 91 97 94 96 94 95 97 95 96 96 95 95 95 96 96 96 88 88
61 63 70 83 87 93 93 88 88 87 91 95 97 95 94 86 84 91 95 97 89 86 97 90 95 95 97 92 95 96 90 94 100 95 96 97 95 94 94 94 97 96 93 99
57 57 74 80 82 87 89 90 91 94 98 96 94 93 94 83 79 85 85 88 85 86 92 98 98 95 99 89 99 98 92 88 100 95 99 99 100 100 100 96 94 96 97 97
56 58 63 69 76 82 84 88 90 94 96 94 94 94 95 84 82 82 83 83 80 76 88 89 93 100 94 93 100 98 94 93 95 98 100 99 100 100 100 100 96 92 88 92
58 59 63 68 76 80 81 86 91 93 96 96 94 94 94 89 86 85 84 85 83 78 80 87 99 99 91 95 100 96 93 94 93 95 100 98 99 100 99 100 100 92 91 86
62 63 64 67 72 74 76 88 91 90 96 96 95 93 90 88 83 82 82 83 93 97 97 100 95 91 85 98 98 96 94 94 94 95 98 98 98 97 97 99 100 100 95 91
68 69 71 72 71 71 74 83 88 89 91 96 96 94 94 92 86 85 86 80 86 86 100 94 93 90 100 96 95 95 95 95 97 96 98 98 97 97 95 95 99 100 100 99
75 76 80 81 80 78 76 76 87 90 92 93 93 93 92 90 85 78 91 100 86 91 100 90 80 100 100 78 78 92 96 97 98 96 96 96 97 97 96 95 97 95 100 96
84 85 87 89 89 88 85 79 80 90 91 94 93 94 92 93 95 91 81 88 94 96 99 92 96 100 99 85 72 77 89 96 97 96 97 97 98 98 98 97 97 91 98 92
87 89 90 91 90 88 88 87 81 87 92 93 94 94 96 92 88 99 97 96 94 100 95 96 100 100 81 88 85 74 77 86 95 96 97 98 97 97 97 96 97 96 98 91
86 88 89 90 90 90 91 91 89 87 88 93 93 95 95 99 98 93 96 96 96 91 84 86 92 89 84 81 92 90 78 78 86 98 96 97 97 96 97 97 97 97 98 92
82 84 86 88 90 93 95 96 94 94 95 92 94 96 95 97 96 95 94 97 96 94 85 78 79 87 90 86 86 95 93 81 77 85 96 98 98 97 97 97 97 96 98 98
86 88 89 88 90 91 94 96 99 96 98 98 96 98 96 97 97 98 97 95 94 94 90 83 80 80 86 88 85 89 96 94 82 83 90 95 96 98 97 97 97 97 97 96